CAPE
0 2 630 940 1166 1271 1293 1328 1368 1363 1385 1290 905 688 630 613 842 448 250 188 136 236 192 25 1 0 159 379 572 652 531 493 383 425 627 838 719 731 627 767 824 713 977
0 0 233 786 978 1140 1284 1286 1288 1452 1604 1323 1140 910 765 984 1184 631 513 372 202 50 17 14 0 0 0 43 82 242 250 65 49 98 422 377 680 674 586 703 865 717 995
0 0 0 172 627 832 961 1055 1083 1173 1153 1165 1181 1179 1146 1097 972 826 613 404 308 168 0 0 0 0 0 0 0 63 24 28 47 57 181 177 317 639 567 665 679 898 962
0 0 0 36 118 127 535 847 880 873 936 929 1030 1084 1048 922 865 743 682 676 448 361 190 27 0 0 0 0 0 0 10 9 15 30 3 55 336 438 527 638 711 818 806
0 0 0 13 22 46 46 11 32 135 154 116 183 489 722 700 679 624 676 664 584 554 486 285 129 84 36 25 0 0 0 0 0 0 0 3 128 433 405 555 577 794 826
0 0 0 9 13 18 15 15 9 3 3 2 1 0 2 461 691 660 526 486 472 415 311 305 409 303 218 239 165 101 88 0 0 0 0 0 125 603 427 472 646 455 482
0 0 0 9 7 6 6 8 11 15 12 9 7 8 11 10 69 209 299 473 416 383 339 282 224 250 347 308 267 334 347 20 0 0 0 0 0 402 553 403 281 371 238
0 0 0 0 6 7 6 9 5 4 4 3 3 2 3 5 6 5 5 2 2 2 53 224 352 270 248 221 231 198 354 96 0 0 0 0 0 141 490 274 312 175 98
0 0 0 0 0 0 6 5 1 0 0 0 0 0 0 0 1 7 6 6 5 3 2 1 17 291 278 242 247 270 102 2 0 0 0 0 0 32 429 519 470 412 238
0 0 0 0 0 0 0 0 0 0 0 0 0 0 0 0 0 0 0 1 2 4 4 1 0 0 1 282 347 233 19 1 0 0 0 0 0 107 325 376 679 765 828
0 0 0 0 0 0 0 0 0 0 0 0 0 0 0 0 0 0 0 0 0 0 0 2 1 0 0 0 3 8 0 0 0 0 0 0 0 4 315 315 496 769 797
0 0 0 0 0 0 0 0 0 0 0 0 0 0 0 0 0 0 0 0 0 0 0 0 0 0 0 0 0 0 0 0 0 0 0 0 0 0 0 473 546 424 882
0 0 0 0 0 0 0 0 0 0 0 0 0 0 0 0 0 0 0 0 0 0 0 0 0 0 0 0 0 0 0 0 0 0 0 0 0 0 0 450 558 665 638
0 0 0 0 0 0 0 0 0 0 0 0 0 0 0 0 0 0 0 0 0 0 0 0 0 0 0 0 0 0 0 0 0 0 0 0 0 0 9 353 799 529 519
0 0 0 0 0 0 0 0 0 0 0 0 0 0 0 0 0 0 0 0 0 0 0 0 0 0 0 0 0 0 0 0 0 0 0 0 2 0 40 31 611 693 747
0 0 0 0 0 0 0 0 0 0 0 0 0 0 0 0 0 0 0 0 0 0 0 0 0 0 0 0 0 0 0 0 0 0 0 0 2 8 19 0 415 549 449
0 0 0 0 0 0 0 0 0 0 0 0 0 0 0 0 0 0 0 0 0 0 0 0 0 0 0 0 0 0 0 0 0 0 0 0 0 0 8 126 86 412 461
0 0 0 0 0 0 0 0 0 0 0 0 0 0 0 0 0 0 0 0 0 0 0 0 0 0 0 0 0 0 0 0 0 0 0 0 0 0 1 39 172 249 244
0 0 0 0 0 0 0 0 0 0 0 0 0 0 0 0 0 0 0 0 0 0 0 0 0 0 0 0 0 0 0 0 0 0 0 0 0 0 0 0 13 27 77
0 0 0 0 0 0 0 0 0 0 0 0 0 0 0 0 0 0 0 0 0 0 0 0 0 0 0 0 0 0 0 0 0 0 0 0 0 0 0 0 0 2 5
0 0 0 0 0 0 0 0 0 0 0 0 0 0 0 0 0 0 0 0 0 0 0 0 0 0 0 0 0 0 0 0 0 0 0 0 0 0 0 0 0 0 0
0 0 0 0 0 0 0 0 0 0 0 0 0 0 0 0 0 0 0 0 0 0 0 0 0 0 0 0 0 0 0 0 0 0 0 0 0 0 0 0 0 0 0
0 0 0 0 0 0 0 0 0 0 0 0 0 0 0 0 0 0 0 0 0 0 0 0 0 0 0 0 0 0 0 0 0 0 0 0 0 0 0 0 0 0 0
0 0 0 0 0 0 0 0 0 0 0 0 0 0 0 0 0 0 0 0 0 0 0 0 0 0 0 0 0 0 0 0 0 0 0 0 0 0 0 0 0 0 0
0 0 0 0 0 0 0 0 0 0 0 0 0 0 0 0 0 0 0 0 0 0 0 0 0 0 0 0 0 0 0 0 0 0 0 0 0 0 0 0 0 0 0
0 0 0 0 0 0 0 0 0 0 0 0 0 0 0 0 0 0 0 0 0 0 0 0 0 0 0 0 0 0 0 0 0 0 0 0 0 0 0 0 0 0 0
CIN
-0 -0 -1 -1 -0 -0 -0 -0 -0 -0 -0 -0 -0 -0 -2 -6 -0 -4 -27 -28 -29 -6 -3 -39 -0 -0 -0 -0 -0 -0 -0 -0 -1 -7 -5 -1 -5 -0 -0 -5 -8 -5 -0
-0 -0 -0 -0 -0 -0 -0 -0 -0 -0 -0 -0 -0 -0 -0 -0 -0 -0 -1 -5 -13 -35 -67 -66 -0 -0 -0 -16 -3 -0 -7 -58 -61 -35 -11 -19 -6 -0 -1 -3 -4 -7 -0
-0 -0 -0 -28 -0 -0 -0 -0 -0 -0 -0 -0 -0 -0 -0 -0 -0 -0 -0 -0 -0 -4 -0 -0 -0 -0 -0 -0 -0 -25 -64 -93 -89 -72 -30 -25 -10 -4 -3 -3 -4 -6 -0
-0 -0 -0 -43 -50 -48 -6 -0 -0 -0 -0 -0 -0 -0 -0 -0 -0 -0 -0 -0 -0 -0 -1 -11 -0 -0 -0 -0 -0 -0 -45 -89 -179 -139 -45 -67 -13 -4 -4 -1 -3 -1 -0
-0 -0 -0 -0 -54 -79 -80 -84 -101 -53 -49 -68 -42 -1 -0 -0 -0 -0 -0 -0 -0 -0 -0 -0 -4 -9 -27 -30 -0 -0 -0 -0 -0 -0 -0 -258 -41 -8 -3 -5 -6 -0 -1
-0 -0 -0 -0 -0 -0 -0 -2 -0 -0 -0 -0 -0 -0 -1 -0 -0 -0 -0 -1 -1 -1 -1 -0 -0 -0 -1 -0 -0 -11 -40 -0 -0 -0 -0 -4 -44 -6 -0 -1 -1 -3 -0
-0 -0 -0 -0 -0 -0 -0 -0 -0 -0 -0 -0 -0 -0 -0 -0 -7 -0 -0 -0 -0 -0 -0 -0 -0 -0 -1 -2 -0 -0 -0 -9 -0 -0 -0 -0 -0 -9 -0 -0 -10 -3 -11
-0 -0 -0 -0 -0 -0 -0 -0 -0 -0 -0 -0 -0 -0 -0 -0 -0 -0 -0 -0 -0 -0 -0 -0 -0 -0 -0 -1 -2 -4 -2 -13 -0 -0 -0 -0 -0 -51 -1 -7 -8 -23 -42
-0 -0 -0 -0 -0 -0 -0 -0 -0 -0 -0 -0 -0 -0 -0 -0 -0 -0 -0 -0 -0 -0 -0 -0 -0 -0 -0 -0 -2 -2 -13 -6 -0 -0 -0 -0 -0 -63 -1 -1 -1 -6 -11
-0 -0 -0 -0 -0 -0 -0 -0 -0 -0 -0 -0 -0 -0 -0 -0 -0 -0 -0 -0 -0 -0 -0 -0 -0 -0 -0 -1 -3 -6 -17 -6 -0 -0 -0 -0 -0 -18 -2 -2 -1 -0 -0
-0 -0 -0 -0 -0 -0 -0 -0 -0 -0 -0 -0 -0 -0 -0 -0 -0 -0 -0 -0 -0 -0 -0 -0 -0 -0 -0 -0 -8 -7 -0 -0 -0 -0 -0 -0 -0 -4 -4 -4 -1 -0 -0
-0 -0 -0 -0 -0 -0 -0 -0 -0 -0 -0 -0 -0 -0 -0 -0 -0 -0 -0 -0 -0 -0 -0 -0 -0 -0 -0 -0 -0 -0 -0 -0 -0 -0 -0 -0 -0 -0 -0 -2 -1 -5 -1
-0 -0 -0 -0 -0 -0 -0 -0 -0 -0 -0 -0 -0 -0 -0 -0 -0 -0 -0 -0 -0 -0 -0 -0 -0 -0 -0 -0 -0 -0 -0 -0 -0 -0 -0 -0 -0 -0 -0 -7 -3 -0 -3
-0 -0 -0 -0 -0 -0 -0 -0 -0 -0 -0 -0 -0 -0 -0 -0 -0 -0 -0 -0 -0 -0 -0 -0 -0 -0 -0 -0 -0 -0 -0 -0 -0 -0 -0 -0 -0 -0 -3 -9 -0 -3 -3
-0 -0 -0 -0 -0 -0 -0 -0 -0 -0 -0 -0 -0 -0 -0 -0 -0 -0 -0 -0 -0 -0 -0 -0 -0 -0 -0 -0 -0 -0 -0 -0 -0 -0 -0 -0 -32 -0 -26 -14 -0 -0 -0
-0 -0 -0 -0 -0 -0 -0 -0 -0 -0 -0 -0 -0 -0 -0 -0 -0 -0 -0 -0 -0 -0 -0 -0 -0 -0 -0 -0 -0 -0 -0 -0 -0 -0 -0 -0 -110 -65 -51 -0 -15 -0 -0
-0 -0 -0 -0 -0 -0 -0 -0 -0 -0 -0 -0 -0 -0 -0 -0 -0 -0 -0 -0 -0 -0 -0 -0 -0 -0 -0 -0 -0 -0 -0 -0 -0 -0 -0 -0 -0 -35 -61 -23 -29 -9 -5
-0 -0 -0 -0 -0 -0 -0 -0 -0 -0 -0 -0 -0 -0 -0 -0 -0 -0 -0 -0 -0 -0 -0 -0 -0 -0 -0 -0 -0 -0 -0 -0 -0 -0 -0 -0 -0 -0 -46 -38 -10 -8 -12
-0 -0 -0 -0 -0 -0 -0 -0 -0 -0 -0 -0 -0 -0 -0 -0 -0 -0 -0 -0 -0 -0 -0 -0 -0 -0 -0 -0 -0 -0 -0 -0 -0 -0 -0 -0 -0 -0 -0 -0 -44 -31 -14
-0 -0 -0 -0 -0 -0 -0 -0 -0 -0 -0 -0 -0 -0 -0 -0 -0 -0 -0 -0 -0 -0 -0 -0 -0 -0 -0 -0 -0 -0 -0 -0 -0 -0 -0 -0 -0 -0 -0 -0 -0 -58 -76
-0 -0 -0 -0 -0 -0 -0 -0 -0 -0 -0 -0 -0 -0 -0 -0 -0 -0 -0 -0 -0 -0 -0 -0 -0 -0 -0 -0 -0 -0 -0 -0 -0 -0 -0 -0 -0 -0 -0 -0 -0 -0 -0
-0 -0 -0 -0 -0 -0 -0 -0 -0 -0 -0 -0 -0 -0 -0 -0 -0 -0 -0 -0 -0 -0 -0 -0 -0 -0 -0 -0 -0 -0 -0 -0 -0 -0 -0 -0 -0 -0 -0 -0 -0 -0 -0
-0 -0 -0 -0 -0 -0 -0 -0 -0 -0 -0 -0 -0 -0 -0 -0 -0 -0 -0 -0 -0 -0 -0 -0 -0 -0 -0 -0 -0 -0 -0 -0 -0 -0 -0 -0 -0 -0 -0 -0 -0 -0 -0
-0 -0 -0 -0 -0 -0 -0 -0 -0 -0 -0 -0 -0 -0 -0 -0 -0 -0 -0 -0 -0 -0 -0 -0 -0 -0 -0 -0 -0 -0 -0 -0 -0 -0 -0 -0 -0 -0 -0 -0 -0 -0 -0
-0 -0 -0 -0 -0 -0 -0 -0 -0 -0 -0 -0 -0 -0 -0 -0 -0 -0 -0 -0 -0 -0 -0 -0 -0 -0 -0 -0 -0 -0 -0 -0 -0 -0 -0 -0 -0 -0 -0 -0 -0 -0 -0
-0 -0 -0 -0 -0 -0 -0 -0 -0 -0 -0 -0 -0 -0 -0 -0 -0 -0 -0 -0 -0 -0 -0 -0 -0 -0 -0 -0 -0 -0 -0 -0 -0 -0 -0 -0 -0 -0 -0 -0 -0 -0 -0
Wind_Speed
13 17 16 14 16 16 17 16 16 16 15 13 14 13 12 12 11 12 13 14 14 14 14 13 13 13 12 13 14 13 13 14 13 12 12 7 8 9 7 7 9 7 13
13 15 22 16 16 16 16 15 15 14 13 12 12 12 12 10 11 12 12 12 12 12 12 12 12 13 13 12 12 11 12 11 11 10 9 7 5 7 6 6 7 8 12
15 16 15 23 21 17 16 15 14 14 14 13 13 13 13 13 13 11 11 11 11 11 11 11 11 11 12 12 12 11 12 12 10 7 7 5 4 5 7 7 6 10 11
14 15 15 22 21 19 20 18 16 16 16 15 14 14 13 14 13 12 10 10 10 10 10 10 10 9 9 10 10 10 12 13 12 8 4 4 3 4 5 5 5 9 9
13 14 15 21 21 21 20 19 19 19 18 18 17 15 14 13 12 12 10 9 9 9 9 9 8 8 8 8 8 9 10 11 11 7 5 4 3 1 2 3 4 6 7
12 12 16 21 22 22 23 24 22 20 22 22 22 19 15 14 13 12 11 9 9 9 9 8 8 7 8 8 8 8 8 10 8 6 5 6 4 6 3 4 4 5 5
12 12 12 22 22 23 24 24 24 23 23 23 24 24 24 22 21 21 20 17 13 12 11 10 9 9 7 7 8 8 7 7 5 5 5 5 5 10 8 6 6 5 5
13 13 12 17 21 23 23 25 25 24 24 25 24 24 24 24 23 24 24 23 21 19 17 15 13 10 9 8 8 8 7 7 5 5 5 5 9 11 11 9 7 7 6
14 12 12 13 15 20 23 23 25 26 26 26 26 25 24 24 24 24 24 24 23 22 22 22 19 15 11 10 9 7 8 7 4 3 5 4 9 12 10 11 9 8 8
13 13 13 13 13 11 11 24 24 26 26 27 26 25 25 23 24 24 24 24 24 23 23 22 22 22 19 13 10 9 8 7 4 5 3 4 14 10 9 11 10 10 10
12 12 12 12 12 11 12 14 18 22 24 23 20 23 15 10 12 15 20 24 24 24 23 23 24 23 21 18 15 12 10 3 4 3 3 10 12 14 13 9 11 11 9
14 12 12 12 12 10 10 10 11 12 10 12 13 12 9 10 11 12 15 20 20 23 22 23 22 21 18 9 7 11 4 5 4 4 3 12 14 14 15 14 11 12 10
9 9 12 10 10 11 10 8 6 7 7 8 14 13 11 9 9 8 8 9 10 17 9 12 11 8 11 8 8 8 8 6 3 3 5 13 14 16 15 16 13 11 12
9 10 11 11 10 11 7 7 8 8 7 8 9 13 9 7 8 8 7 8 8 8 10 10 7 9 9 9 9 9 9 7 6 4 5 11 14 15 17 17 15 13 13
9 8 9 9 10 9 10 7 7 8 7 7 9 11 10 9 9 8 8 8 8 8 8 9 9 9 9 9 9 8 9 8 8 5 5 12 13 15 16 16 16 16 16
6 7 6 10 9 8 8 7 6 5 6 7 7 8 10 8 7 7 7 8 8 8 9 8 8 9 8 8 10 9 9 8 8 7 6 7 14 14 16 17 16 17 17
5 6 8 8 8 8 7 6 5 6 5 6 6 8 10 9 9 8 6 7 8 8 10 8 9 9 8 8 9 9 9 9 8 9 8 6 7 12 13 16 17 18 18
6 7 6 7 8 8 7 5 5 5 5 5 5 6 9 9 9 7 6 7 8 7 7 8 8 9 8 9 9 9 9 10 11 9 7 6 6 6 8 13 15 17 19
6 6 7 7 8 7 6 4 5 6 6 5 6 7 9 10 10 8 6 7 8 7 7 8 8 7 9 10 10 11 10 9 10 10 10 9 9 8 6 9 11 13 15
6 6 6 5 7 6 4 4 3 4 4 4 6 7 9 9 11 9 6 8 8 7 7 8 9 8 8 8 11 11 8 10 10 10 10 8 7 7 7 7 5 6 11
6 6 7 7 7 7 6 7 3 7 3 5 5 7 7 8 9 9 7 8 8 8 8 9 8 10 8 7 7 9 9 11 11 7 6 6 7 6 5 5 4 4 5
4 5 6 7 6 6 3 3 2 3 2 3 4 5 6 10 10 10 9 8 9 7 9 8 8 8 6 7 6 8 8 5 6 7 6 5 6 7 7 6 6 6 6
5 5 6 5 5 4 5 2 2 2 3 3 7 7 8 9 9 9 9 8 8 7 7 7 7 7 7 7 5 3 6 5 12 3 7 7 10 9 9 6 7 8 7
3 3 3 4 4 5 5 4 5 3 5 4 6 6 8 10 10 9 9 8 8 7 8 7 8 7 7 7 6 4 5 5 5 10 3 13 14 10 8 8 10 8 9
4 3 2 4 5 5 6 6 4 4 3 5 6 8 9 9 9 10 10 10 9 7 8 9 9 8 6 7 7 7 8 8 9 8 16 10 9 8 9 11 6 9 11
2 3 4 6 4 5 5 5 5 6 7 6 8 7 6 7 7 10 10 10 10 10 10 9 10 10 9 9 8 8 9 8 7 8 10 13 15 12 10 10 11 9 8
Wind_Direction
330 333 2 35 51 55 56 54 55 56 59 62 57 59 57 54 52 54 52 47 43 38 38 40 39 38 40 45 56 56 54 47 37 35 28 49 96 103 106 116 110 102 109
314 345 10 36 45 55 58 58 57 56 55 54 59 58 55 54 48 53 49 47 46 46 45 43 42 38 36 36 41 50 49 38 31 16 28 20 71 105 104 102 112 115 109
352 345 9 26 35 46 50 56 56 54 51 45 47 49 43 46 45 42 46 42 40 39 39 42 45 44 40 32 30 35 31 24 27 35 45 26 39 93 107 108 125 120 116
0 351 5 25 32 33 42 50 50 52 50 46 42 37 38 40 42 38 32 34 35 35 34 32 33 37 39 37 31 29 23 21 21 41 33 29 8 90 107 118 131 119 125
8 354 358 28 33 37 40 42 45 47 47 41 35 34 37 37 35 38 34 28 26 22 20 20 19 18 20 25 32 25 21 20 19 16 11 337 327 343 121 138 129 110 115
8 2 359 30 35 39 42 44 43 46 45 40 36 33 30 31 31 30 28 26 19 11 8 1 358 359 0 358 3 12 16 14 14 6 349 339 305 282 202 156 137 144 156
6 7 8 27 36 41 44 44 44 44 43 41 39 38 36 37 33 28 23 14 12 11 4 353 348 342 337 341 342 344 356 5 12 353 341 328 324 283 235 205 187 185 194
14 7 10 22 32 41 44 44 43 42 41 39 38 38 37 36 34 32 28 26 19 14 8 1 350 341 334 327 323 329 343 346 350 334 323 314 305 310 260 206 207 202 207
23 15 11 12 19 35 40 42 43 41 39 38 35 33 32 31 32 31 27 24 22 20 19 14 4 346 335 326 319 320 325 330 332 316 316 310 304 306 293 228 211 213 217
22 18 13 11 14 20 27 36 39 38 36 34 32 30 28 24 23 23 23 20 19 16 16 14 11 10 355 333 329 329 323 323 321 308 295 294 309 299 299 239 220 227 234
25 21 13 14 19 17 32 28 32 33 34 32 27 25 24 20 18 18 17 17 15 13 13 12 9 9 7 2 349 341 333 312 298 284 291 290 298 303 291 254 239 236 224
20 13 12 13 17 18 33 24 29 26 26 27 23 18 15 15 15 19 16 17 15 12 8 6 6 6 5 356 349 350 335 319 305 293 275 287 291 286 294 276 231 233 234
22 25 14 11 19 25 25 24 23 29 23 22 22 20 14 13 10 11 8 6 2 3 5 360 358 1 352 351 348 344 340 337 317 303 293 289 288 284 280 268 251 232 232
30 25 17 16 25 28 30 32 30 28 26 27 19 19 16 13 10 9 9 5 6 359 356 354 349 344 343 342 341 336 338 337 328 322 310 293 293 285 282 276 247 248 248
42 23 23 22 26 26 36 30 29 30 26 18 20 17 19 15 9 0 1 2 2 356 355 347 344 344 338 340 334 331 327 323 322 323 317 310 302 296 285 275 265 249 247
41 24 15 32 22 26 33 29 27 23 18 24 23 18 18 18 10 6 0 2 360 354 347 345 339 339 329 334 327 326 315 309 312 308 307 308 306 298 293 280 264 264 262
37 25 26 31 17 25 21 24 27 22 23 25 16 12 14 16 7 1 358 358 354 347 343 345 342 338 336 333 322 315 312 311 301 298 299 291 295 295 286 288 277 264 261
50 41 32 28 22 21 17 16 21 19 20 19 12 11 11 10 7 0 355 354 345 346 347 347 346 337 336 331 322 317 311 303 296 286 280 280 285 286 291 291 280 279 270
56 45 38 27 23 12 4 7 18 15 19 12 9 9 3 4 1 359 349 346 344 346 347 346 343 337 330 325 319 311 302 293 288 291 280 270 267 269 271 273 271 256 269
59 51 41 32 22 7 1 347 6 19 10 9 9 6 357 356 354 352 349 344 346 344 342 341 337 337 323 317 317 299 294 289 275 268 270 271 261 258 264 267 275 276 255
52 48 34 29 16 23 15 5 6 5 351 359 5 348 349 347 348 344 343 338 342 342 334 335 330 331 330 342 319 321 291 267 272 272 270 280 286 284 276 277 282 275 275
76 52 39 31 24 26 18 359 348 312 321 315 347 335 341 343 339 337 335 334 331 327 329 332 333 328 327 360 312 299 325 316 13 318 301 335 354 349 337 326 312 299 288
66 43 47 31 27 32 13 343 321 301 315 334 351 340 337 329 324 322 322 318 319 321 315 317 319 316 319 320 321 302 315 303 341 280 325 336 342 330 318 330 332 326 311
104 67 56 36 22 20 2 19 23 6 342 322 317 306 315 320 317 313 309 307 305 302 301 300 307 306 303 303 307 264 266 299 302 308 263 322 311 316 339 337 326 332 329
102 65 37 14 12 12 8 3 352 332 277 279 297 302 307 304 302 301 303 305 301 297 291 289 291 290 282 280 277 280 280 269 265 270 291 297 295 305 314 305 316 317 314
115 44 10 11 352 350 351 340 323 305 308 314 309 306 302 301 300 299 301 299 295 291 288 288 284 277 274 269 267 264 264 263 269 274 286 291 289 296 296 304 294 289 301